Home > Weather > Swindon > Past weeks

Flag for United Kingdom Past Weather in Swindon, England, United Kingdom — Yesterday and Last 2 Weeks

Now
72 °F

Sunny.


Feels Like: 77 °F
Forecast: 53 / 75 °F
Wind: 6 mph from West

Location: Brize Norton

Current Time: Aug 26, 2016 at 7:45:45 PM

Latest Report: Aug 26, 2016 at 6:50 PM


Visibility: 10 mi

Pressure: 30.09 "Hg

Humidity: 47%

Dew Point: 50 °F

Location of SwindonLocation

Past Weather in Swindon — Graph

°F

Swindon Temperature Yesterday

Maximum temperature yesterday: 72 °F (at 11:50 AM)
Minimum temperature yesterday: 63 °F (at 1:50 AM)
Average temperature yesterday: 67 °F

High & Low Weather Summary for the Past Weeks

 TemperatureHumidityPressure
High84 °F (Aug 23, 1:50 PM)100% (Aug 12, 4:50 AM)30.30 "Hg (Aug 12, 4:50 AM)
Low48 °F (Aug 15, 5:50 AM)35% (Aug 23, 3:50 PM)29.59 "Hg (Aug 19, 5:50 PM)
Average65 °F73%30.04 "Hg
* Reported Aug 11 5:50 PM — Aug 26 5:50 PM, Swindon, Weather by CustomWeather, © 2016

Note: Actual official high and low records may vary slightly from our data, if they occured in-between our weather recording intervals... More about our weather records

Advertising

Swindon Weather History for the Previous 24 Hours

Scroll right to see more
 ConditionsComfort  
Time TempWeatherWind HumidityBarometerVisibility
5:50 PM
Fri, Aug 26
72 °FSunny.6 mph47%30.09 "Hg10 mi
4:50 PM73 °FSunny.6 mph44%30.09 "Hg10 mi
3:50 PM73 °FSunny.6 mph41%30.09 "Hg10 mi
2:50 PM73 °FPassing clouds.7 mph47%30.09 "HgN/A
1:50 PM72 °FPassing clouds.6 mph50%30.07 "HgN/A
12:50 PM72 °FPassing clouds.6 mph50%30.09 "HgN/A
11:50 AM70 °FPassing clouds.5 mph57%30.09 "HgN/A
10:50 AM66 °FPassing clouds.5 mph56%30.09 "HgN/A
9:50 AM64 °FPassing clouds.5 mph64%30.09 "HgN/A
8:50 AM63 °FPassing clouds.8 mph64%30.07 "HgN/A
7:50 AM61 °FPassing clouds.5 mph77%30.04 "HgN/A
6:50 AM59 °FPassing clouds.3 mph88%30.04 "HgN/A
5:50 AM63 °FFog.3 mph94%30.01 "Hg2 mi
4:50 AM63 °FPassing clouds.2 mph94%29.98 "HgN/A
3:50 AM63 °FPassing clouds.No wind94%29.98 "HgN/A
2:50 AM63 °FFog.6 mph100%29.98 "Hg6 mi
1:50 AM64 °FClear.1 mph94%29.95 "Hg10 mi
12:50 AM64 °FLight rain. Overcast.5 mph94%29.98 "HgN/A
11:50 PM
Thu, Aug 25
66 °FOvercast.5 mph88%29.98 "Hg2 mi
10:50 PM66 °FMostly cloudy.6 mph94%29.98 "Hg2 mi
9:50 PM68 °FMostly cloudy.3 mph88%29.95 "Hg3 mi
9:00 PM70 °FMore clouds than sun.5 mph88%29.95 "Hg3 mi
8:50 PM68 °FOvercast.5 mph94%29.95 "Hg3 mi
7:50 PM70 °FPartly sunny.No wind88%29.95 "Hg5 mi
Weather by CustomWeather, © 2016

See weather overviewHow to use our weather pages